Location: Strawberry
(45.6646°N, 111.9596°W)
Time: 21:01:12
(UTC+00:00)

Courier 1B - Pass Details

Date: 08 October 2022
Orbit: 962 x 1209 km, 28.3° (Epoch: 29 November)

Event Time Altitude Azimuth Distance (km) Brightness Sun altitude
Rises 23:11:44 0° 250° (WSW) 4,018 12.5 16.3°
Reaches altitude 10° 23:16:06 10° 227° (SW) 3,005 11.9 15.6°
Maximum altitude 23:19:46 14° 197° (SSW) 2,637 10.5 15.0°
Drops below altitude 10° 23:23:21 10° 167° (SSE) 2,909 10.2 14.4°
Sets 23:27:28 0° 144° (SE) 3,806 10.5 13.8°
